Change the Weather History Date:

Saturday, May 4, 2013

  Actual Average (KTDF) Record (KTDF)
Temperature  
Mean Temperature 52 °F -  
Max Temperature 59 °F 74 °F 91 °F (1965)
Min Temperature 46 °F 47 °F 36 °F (1967)
Degree Days  
Heating Degree Days 12    
Growing Degree Days 2 (Base 50)    
Moisture  
Dew Point 47 °F    
Average Humidity 83    
Maximum Humidity 93    
Minimum Humidity 72    
Precipitation  
Precipitation 0.00 in - - ()
Sea Level Pressure  
Sea Level Pressure 30.18 in    
Wind  
Wind Speed 8 mph (NE)    
Max Wind Speed 13 mph    
Max Gust Speed 20 mph    
Visibility 9 miles    
Events      
Averages and records for this station are not official NWS values.
T = Trace of Precipitation, MM = Missing Value Source: NWS Daily Summary

Daily Weather History Graph

Daily Weather History Graph

Search for Another Location

Airport or City:

Trip Planner

Search our weather history database for the weather conditions in past years. The results will help you decide how hot, cold, wet, or windy it might be!

Date:

Astronomy

May. 04, 2013 Rise Set
Actual Time 6:17 AM EDT 8:04 PM EDT
Civil Twilight 5:49 AM EDT 8:32 PM EDT
Nautical Twilight 5:15 AM EDT 9:06 PM EDT
Astronomical Twilight 4:40 AM EDT 9:42 PM EDT
Moon 3:05 AM EDT (5/4) 3:08 PM EDT (5/4)
Length of Visible Light 14h 43m
Length of Day
13h 47m
Waning Crescent, 27% of the Moon is Illuminated
May 4
Waning Crescent
May 9
New
May 18
First Quarter
May 25
Full
May 31
Last Quarter

Hourly Weather History & Observations

Time (EDT) Temp. Windchill Dew Point Humidity Pressure Visibility Wind Dir Wind Speed Gust Speed Precip Events Conditions
12:15 AM 49.1 °F - 42.8 °F 79% 30.25 in 10.0 mi NE 6.9 mph - N/A   Clear
12:35 AM 49.1 °F - 43.0 °F 79% 30.24 in 10.0 mi NE 5.8 mph - N/A   Clear
12:55 AM 48.6 °F - 43.2 °F 82% 30.24 in 10.0 mi NE 9.2 mph - N/A   Clear
1:15 AM 48.2 °F - 43.0 °F 82% 30.23 in 10.0 mi NE 6.9 mph - N/A   Clear
1:35 AM 48.0 °F - 42.8 °F 82% 30.22 in 10.0 mi NE 8.1 mph - N/A   Clear
1:55 AM 47.7 °F - 43.0 °F 84% 30.22 in 10.0 mi NE 8.1 mph - N/A   Clear
2:15 AM 47.5 °F - 43.0 °F 84% 30.21 in 10.0 mi NE 8.1 mph - N/A   Clear
2:35 AM 47.3 °F - 42.8 °F 84% 30.20 in 10.0 mi NE 8.1 mph - N/A   Clear
2:55 AM 47.3 °F - 43.0 °F 85% 30.20 in 10.0 mi NE 5.8 mph - N/A   Mostly Cloudy
3:15 AM 47.5 °F - 43.2 °F 85% 30.20 in 10.0 mi NE 10.4 mph - N/A   Overcast
3:35 AM 47.5 °F - 43.2 °F 85% 30.20 in 10.0 mi NE 9.2 mph - N/A   Overcast
3:55 AM 47.5 °F - 43.2 °F 85% 30.20 in 10.0 mi NE 9.2 mph - N/A   Overcast
4:15 AM 47.5 °F - 43.2 °F 85% 30.21 in 10.0 mi NE 11.5 mph 18.4 mph N/A   Overcast
4:35 AM 47.3 °F - 43.0 °F 85% 30.20 in 10.0 mi NE 10.4 mph - N/A   Overcast
4:55 AM 47.3 °F - 43.2 °F 86% 30.20 in 10.0 mi NE 9.2 mph 17.3 mph N/A   Overcast
5:15 AM 46.9 °F - 43.2 °F 87% 30.20 in 10.0 mi NE 10.4 mph 17.3 mph N/A   Overcast
5:35 AM 46.9 °F - 43.3 °F 87% 30.20 in 10.0 mi NE 10.4 mph - N/A   Overcast
5:55 AM 46.8 °F - 43.3 °F 88% 30.20 in 10.0 mi NE 11.5 mph - N/A   Overcast
6:15 AM 46.6 °F - 43.3 °F 88% 30.20 in 10.0 mi NE 9.2 mph 17.3 mph N/A   Overcast
6:35 AM 46.6 °F - 43.7 °F 90% 30.21 in 10.0 mi NE 8.1 mph - N/A   Overcast
6:55 AM 46.6 °F - 43.7 °F 90% 30.21 in 7.0 mi NE 11.5 mph 16.1 mph N/A   Overcast
7:15 AM 46.4 °F 40.7 °F 43.7 °F 90% 30.22 in 7.0 mi NE 12.7 mph 16.1 mph N/A   Overcast
7:35 AM 46.4 °F 41.5 °F 44.1 °F 92% 30.22 in 4.0 mi NE 10.4 mph - N/A   Overcast
7:55 AM 46.4 °F 41.1 °F 44.6 °F 93% 30.22 in 4.0 mi NE 11.5 mph 16.1 mph N/A   Overcast
8:15 AM 46.8 °F - 45.0 °F 93% 30.22 in 4.0 mi NE 9.2 mph - N/A   Overcast
8:35 AM 46.9 °F - 45.0 °F 93% 30.22 in 4.0 mi NE 9.2 mph 16.1 mph N/A   Overcast
8:55 AM 47.3 °F - 45.5 °F 93% 30.22 in 4.0 mi NE 9.2 mph - N/A   Overcast
9:15 AM 47.5 °F - 45.1 °F 92% 30.22 in 5.0 mi NE 12.7 mph 19.6 mph N/A   Overcast
9:35 AM 48.2 °F - 45.5 °F 90% 30.22 in 7.0 mi NE 9.2 mph - N/A   Overcast
9:55 AM 49.1 °F - 45.7 °F 88% 30.22 in 10.0 mi NE 8.1 mph - N/A   Overcast
10:15 AM 49.5 °F - 45.5 °F 86% 30.22 in 10.0 mi NE 8.1 mph - N/A   Overcast
10:35 AM 49.5 °F - 46.0 °F 88% 30.21 in 5.0 mi NE 10.4 mph 16.1 mph N/A   Overcast
10:55 AM 49.8 °F - 46.6 °F 89% 30.21 in 3.0 mi NE 10.4 mph - N/A   Overcast
11:15 AM 50.2 °F - 47.1 °F 89% 30.21 in 5.0 mi NE 9.2 mph - N/A   Overcast
11:35 AM 50.7 °F - 47.3 °F 88% 30.21 in 7.0 mi NE 10.4 mph - N/A   Overcast
11:55 AM 50.7 °F - 47.1 °F 87% 30.21 in 7.0 mi NE 8.1 mph - N/A   Overcast
12:15 PM 53.4 °F - 47.5 °F 80% 30.20 in 10.0 mi NE 8.1 mph - N/A   Overcast
12:35 PM 53.8 °F - 47.5 °F 79% 30.20 in 10.0 mi NE 8.1 mph - N/A   Overcast
12:55 PM 54.0 °F - 47.7 °F 79% 30.19 in 10.0 mi NNE 8.1 mph - N/A   Overcast
1:15 PM 55.2 °F - 48.4 °F 78% 30.18 in 10.0 mi NNE 9.2 mph - N/A   Overcast
1:35 PM 55.8 °F - 48.6 °F 77% 30.18 in 10.0 mi NNE 6.9 mph - N/A   Overcast
1:55 PM 55.2 °F - 48.9 °F 79% 30.17 in 10.0 mi NE 8.1 mph - N/A   Overcast
2:15 PM 54.9 °F - 48.9 °F 80% 30.17 in 10.0 mi NNE 9.2 mph - N/A   Overcast
2:35 PM 54.7 °F - 49.5 °F 83% 30.16 in 10.0 mi NNE 8.1 mph - N/A   Overcast
2:55 PM 54.7 °F - 50.0 °F 84% 30.16 in 10.0 mi NNE 5.8 mph - N/A   Overcast
3:15 PM 56.3 °F - 50.4 °F 80% 30.15 in 10.0 mi NE 8.1 mph - N/A   Overcast
3:35 PM 57.9 °F - 50.7 °F 77% 30.14 in 10.0 mi NE 6.9 mph - N/A   Overcast
3:55 PM 56.5 °F - 49.3 °F 77% 30.14 in 10.0 mi NE 8.1 mph - N/A   Overcast
4:15 PM 56.8 °F - 49.5 °F 76% 30.13 in 10.0 mi NNE 5.8 mph - N/A   Overcast
4:35 PM 56.7 °F - 50.2 °F 79% 30.13 in 10.0 mi NNE 6.9 mph - N/A   Overcast
4:55 PM 58.3 °F - 51.3 °F 77% 30.13 in 10.0 mi NE 8.1 mph - N/A   Overcast
5:15 PM 58.3 °F - 50.7 °F 76% 30.12 in 10.0 mi NE 8.1 mph - N/A   Overcast
5:35 PM 58.5 °F - 49.6 °F 72% 30.12 in 10.0 mi ENE 12.7 mph 18.4 mph N/A   Overcast
5:55 PM 59.0 °F - 50.9 °F 74% 30.12 in 10.0 mi NE 9.2 mph - N/A   Overcast
6:15 PM 58.1 °F - 49.6 °F 73% 30.13 in 10.0 mi East 10.4 mph 16.1 mph N/A   Overcast
6:35 PM 57.6 °F - 50.2 °F 76% 30.12 in 10.0 mi NE 10.4 mph - N/A   Overcast
6:55 PM 56.8 °F - 49.5 °F 76% 30.12 in 10.0 mi ENE 12.7 mph 17.3 mph N/A   Overcast
7:15 PM 56.5 °F - 49.3 °F 77% 30.12 in 10.0 mi ENE 10.4 mph - N/A   Overcast
7:35 PM 56.3 °F - 49.3 °F 77% 30.12 in 10.0 mi NE 9.2 mph - N/A   Overcast
7:55 PM 55.9 °F - 49.3 °F 78% 30.13 in 10.0 mi ENE 6.9 mph - N/A   Overcast
8:15 PM 55.6 °F - 49.3 °F 79% 30.13 in 10.0 mi NE 5.8 mph - N/A   Overcast
8:35 PM 55.4 °F - 49.3 °F 80% 30.14 in 10.0 mi NE 3.5 mph - N/A   Overcast
8:55 PM 55.4 °F - 49.3 °F 80% 30.15 in 10.0 mi NE 4.6 mph - N/A   Overcast
9:15 PM 55.4 °F - 49.1 °F 79% 30.14 in 10.0 mi NE 8.1 mph - N/A   Overcast
9:35 PM 55.0 °F - 48.7 °F 79% 30.15 in 10.0 mi NE 5.8 mph - N/A   Overcast
9:55 PM 54.5 °F - 48.2 °F 79% 30.16 in 10.0 mi ENE 8.1 mph - N/A   Overcast
10:15 PM 54.1 °F - 48.2 °F 80% 30.16 in 10.0 mi ENE 8.1 mph - N/A   Overcast
10:35 PM 53.6 °F - 47.7 °F 80% 30.15 in 10.0 mi ENE 8.1 mph - N/A   Mostly Cloudy
10:55 PM 53.2 °F - 47.8 °F 82% 30.14 in 10.0 mi NE 5.8 mph - N/A   Mostly Cloudy
11:35 PM 52.9 °F - 46.4 °F 79% 30.14 in 10.0 mi ENE 8.1 mph - N/A   Overcast
11:55 PM 52.7 °F - 46.0 °F 78% 30.15 in 10.0 mi ENE 5.8 mph - N/A   Overcast